Dewpoint
59 59 59 59 60 60 60 59 58 56 56 56 55 55 56 55 53 45 38 40 41 56 57 32 31 27 25 20 17 18 19 17 15 13 11 16 20 22 23 24 56 54 57 62 64
59 59 59 59 59 60 59 59 58 56 55 55 55 55 55 54 47 42 51 55 54 56 31 33 32 29 22 19 18 15 19 18 18 15 15 14 14 17 19 22 57 59 61 63 62
60 59 59 59 59 59 59 58 58 57 55 55 54 55 55 53 43 34 55 54 55 50 34 33 33 30 23 20 19 16 15 19 18 18 16 14 14 14 15 21 48 59 60 61 61
59 59 59 59 59 59 59 58 58 57 55 54 54 55 54 49 22 34 56 54 53 41 34 33 32 28 26 21 18 15 15 15 14 17 16 15 15 16 16 21 41 59 60 60 61
58 58 59 59 59 58 58 58 58 57 55 54 54 54 50 44 40 39 57 52 39 33 33 34 34 29 25 22 21 20 18 17 17 18 17 18 16 18 18 18 23 59 59 59 60
58 58 58 58 58 58 58 58 58 56 55 54 54 53 48 44 42 39 41 40 33 36 36 36 34 31 26 22 21 21 21 20 18 18 20 20 18 18 20 20 18 58 58 59 59
58 57 57 57 57 57 57 57 58 56 54 54 53 49 47 46 47 45 45 43 39 38 34 36 38 38 30 27 27 26 21 21 21 19 18 18 16 19 20 19 18 56 57 58 59
58 57 57 57 56 56 56 56 57 55 53 53 52 46 47 50 49 47 46 42 41 41 40 39 39 38 34 29 28 27 25 20 21 21 20 15 13 17 18 18 18 22 54 56 57
58 57 57 56 56 56 56 57 55 52 52 52 47 46 45 50 46 47 48 45 43 43 42 39 38 37 33 29 28 27 22 22 21 23 21 16 14 16 16 16 17 17 26 50 54
58 57 57 57 56 56 56 50 52 50 50 47 46 44 46 42 42 43 44 45 43 41 35 33 33 28 28 28 26 26 25 24 23 23 20 12 13 15 16 17 19 17 23 31 51
58 58 57 57 56 53 50 50 48 47 47 43 41 42 38 44 42 38 43 34 38 35 29 31 29 27 27 29 29 29 28 26 26 25 25 24 20 17 16 17 18 17 20 25 33
57 57 57 56 53 52 52 50 49 45 40 45 47 45 42 41 39 41 40 34 32 30 33 30 28 29 29 29 29 29 28 27 27 28 27 25 25 24 23 18 19 20 17 23 25
56 56 54 52 52 50 48 50 47 48 43 42 42 41 43 43 41 41 41 35 34 32 32 32 30 30 27 27 27 27 27 27 28 28 28 26 25 25 27 26 22 23 18 19 23
54 53 52 51 48 47 47 49 52 51 40 39 41 41 42 42 40 41 42 40 36 31 29 30 30 30 29 28 28 26 29 31 30 30 27 29 26 26 26 26 26 24 22 19 22
53 52 51 51 50 46 47 49 51 49 29 35 37 37 40 39 38 37 40 40 38 37 30 30 31 32 32 32 33 32 35 33 33 31 30 29 26 26 27 25 25 28 26 23 21
52 52 51 49 49 47 51 50 50 38 29 33 30 31 31 39 38 28 32 37 38 36 37 37 37 34 32 33 33 33 31 31 32 32 28 28 26 25 25 28 32 33 36 38 31
52 51 50 51 47 51 52 49 35 30 33 28 26 29 29 32 36 36 30 31 32 32 33 35 35 35 36 34 34 31 29 27 26 28 27 28 26 26 33 35 35 36 37 39 45
51 51 52 52 51 52 50 38 28 33 33 36 34 29 27 29 32 34 33 29 34 34 31 32 29 33 34 34 32 32 29 29 27 25 26 29 27 29 36 37 37 38 39 39 41
51 50 49 50 51 51 42 30 32 32 33 36 36 32 27 25 27 29 31 26 30 33 30 28 25 26 26 26 28 31 30 30 28 28 27 28 30 34 38 37 39 39 39 39 39
48 47 47 50 51 48 38 34 33 34 37 34 34 35 26 26 25 26 24 25 25 28 31 29 24 27 23 22 24 27 28 31 34 30 27 27 26 32 35 36 37 37 38 39 39
47 41 44 49 49 43 32 34 34 34 36 33 29 30 29 28 27 25 26 29 30 29 29 25 26 26 27 22 18 21 24 29 34 36 30 28 28 33 35 36 33 32 33 34 39
41 32 44 47 35 32 33 35 36 31 34 34 30 29 29 29 28 27 25 33 32 33 30 32 29 26 25 27 26 28 29 30 28 27 30 29 30 34 34 34 35 34 34 34 34
33 32 41 43 30 31 36 36 36 33 32 30 31 32 31 29 28 28 28 35 33 31 32 33 30 24 22 22 32 33 31 30 31 32 28 27 29 34 35 36 35 32 32 32 34
34 31 34 36 33 32 33 34 36 35 34 35 33 33 30 28 28 29 29 32 34 32 38 34 30 27 22 26 33 33 33 32 31 29 30 29 30 35 35 36 36 34 33 33 33
35 32 35 30 32 33 34 34 33 34 36 37 35 34 34 31 30 27 28 29 32 37 33 32 28 27 28 28 32 32 32 32 31 30 28 28 28 28 30 35 36 34 33 32 32
32 34 36 34 34 33 32 32 33 33 34 33 33 34 36 34 33 32 35 34 33 32 30 31 26 28 25 25 24 30 31 31 32 32 31 30 28 30 30 30 28 26 28 29 29
39 37 35 31 32 31 30 30 29 33 34 35 35 33 30 34 36 34 34 36 35 36 35 33 29 27 23 25 25 23 28 29 30 29 29 28 29 29 28 29 29 27 26 24 33
Lifted_Index
9 10 10 10 9 9 9 10 10 10 10 10 11 11 11 11 11 11 11 10 10 10 10 10 10 10 10 9 9 8 5 4 3 4 5 5 4 4 4 1 -3 -5 -5 -5 -6
9 9 9 9 9 9 9 10 10 10 10 10 10 11 11 11 11 11 10 10 10 10 9 9 9 9 9 9 8 7 6 5 5 5 5 5 5 4 4 1 -2 -5 -5 -6 -6
9 9 9 9 9 9 9 10 10 10 10 10 10 10 11 11 10 10 10 10 10 9 9 9 9 9 8 8 8 7 6 6 6 6 6 6 5 4 4 2 -2 -4 -6 -6 -6
8 8 9 9 9 9 9 9 9 10 10 10 10 10 10 10 9 9 10 9 9 9 8 8 8 8 7 7 7 7 7 7 7 7 6 6 5 4 4 3 -0 -4 -5 -5 -5
8 9 9 9 9 9 9 9 9 9 9 9 9 9 9 9 9 9 9 9 9 8 8 7 8 8 7 7 7 7 7 7 7 7 7 6 6 5 4 3 1 -3 -5 -5 -5
8 9 9 9 9 9 9 9 9 9 9 9 9 9 9 8 9 9 9 8 8 8 7 7 7 7 7 7 7 8 8 8 7 7 7 6 6 6 5 4 1 -3 -5 -5 -5
8 8 9 9 9 9 9 9 9 8 8 9 9 9 9 8 8 8 8 7 7 7 7 7 7 7 7 7 7 8 8 7 7 6 6 6 6 6 5 5 3 -1 -4 -5 -5
8 8 8 8 8 8 8 8 8 8 8 8 8 9 9 8 8 7 7 7 6 6 6 6 7 7 7 7 7 7 7 6 5 5 5 6 6 6 5 5 4 1 -2 -4 -5
7 7 7 7 7 7 7 7 7 8 8 8 8 9 9 8 7 6 6 5 5 5 5 6 6 6 6 5 5 6 5 5 4 4 5 5 6 6 6 5 5 4 1 -2 -3
6 6 6 6 6 6 6 6 7 7 7 8 8 9 8 7 6 5 5 5 5 5 5 5 6 5 5 4 4 5 5 5 4 4 4 5 5 6 6 5 5 5 4 2 -0
5 5 5 5 5 5 5 5 6 7 7 8 8 9 8 7 6 5 5 5 5 5 5 5 5 5 4 4 4 5 5 4 4 3 3 4 5 5 5 5 5 5 4 4 3
4 4 4 5 5 5 5 5 6 6 7 7 8 8 7 6 6 6 5 5 5 4 4 4 4 4 4 4 4 4 4 4 4 3 2 3 4 4 3 3 4 4 4 4 4
4 4 5 5 6 6 6 5 6 6 6 6 7 7 6 6 6 6 5 5 5 4 4 4 4 4 4 4 4 3 3 3 3 3 2 3 3 3 3 3 3 3 4 4 4
5 5 5 5 6 6 6 6 6 5 5 5 6 6 5 5 5 5 5 5 5 4 4 4 5 4 4 3 3 3 2 2 2 3 3 3 3 3 3 2 2 2 3 3 3
5 5 5 5 5 6 6 6 6 4 3 4 5 5 5 5 5 5 5 4 4 4 4 4 4 4 4 3 3 2 2 1 2 2 2 2 2 3 3 3 2 2 2 2 2
5 5 5 5 5 6 6 6 5 3 2 3 4 4 4 4 4 5 5 4 4 3 3 3 3 3 3 3 2 2 2 1 1 1 2 2 2 2 3 3 2 2 2 2 2
5 5 5 5 5 6 6 5 4 2 2 2 3 4 4 4 3 4 4 4 3 3 3 3 2 2 2 2 2 2 1 1 1 1 1 2 1 2 2 3 3 3 3 2 2
4 5 5 6 6 6 6 4 3 3 2 2 3 4 4 4 3 3 3 3 3 2 2 2 2 2 2 2 2 1 1 1 0 1 1 2 1 1 2 2 3 3 3 2 2
5 5 6 6 6 6 5 4 3 3 2 2 2 3 4 3 3 3 3 3 3 2 2 2 2 2 2 2 2 1 1 0 0 1 1 2 1 1 1 2 2 3 3 3 3
5 5 6 6 6 5 4 3 3 3 2 2 1 2 2 2 2 2 3 3 3 3 3 3 3 2 2 2 2 1 1 0 1 0 1 1 1 1 1 2 2 2 3 3 3
5 5 5 5 5 4 3 3 3 3 2 2 2 1 1 2 2 2 2 2 3 3 3 3 3 2 2 2 2 1 1 1 1 1 0 1 1 1 1 1 2 2 2 3 4
5 5 6 5 4 3 3 4 4 3 3 3 2 2 2 2 3 2 2 2 2 2 2 2 2 2 2 2 2 2 2 2 1 1 1 1 1 1 1 1 2 2 2 3 4
5 5 6 5 4 3 3 3 4 3 3 3 3 3 4 4 4 3 3 2 2 2 2 2 2 2 2 2 2 2 2 2 1 1 1 1 1 1 1 1 1 2 2 3 3
5 5 5 5 4 3 3 3 3 3 3 3 3 4 4 4 4 3 2 2 2 2 2 2 2 2 2 2 2 2 2 2 2 1 1 1 1 1 1 1 1 1 2 3 3
6 5 5 5 4 4 3 3 3 3 3 3 3 3 4 4 3 3 2 1 1 2 3 3 3 3 2 2 2 2 2 2 2 1 1 1 1 1 1 1 2 2 2 3 3
5 5 5 5 4 4 4 3 3 3 3 3 3 3 3 3 2 2 1 1 1 2 2 3 3 3 2 2 2 2 2 2 2 1 1 1 2 2 2 2 2 2 2 2 2
4 5 5 5 5 5 5 4 4 4 4 4 3 3 3 2 2 2 1 1 1 1 2 2 2 2 2 2 1 1 2 2 1 1 1 1 2 2 2 2 1 2 2 2 2